[[{"header":{"parameterUnit":"m.s-1","parameterCategory":2,"la1":30.2991,"la2":30.254,"lo1":-89.0895,"lo2":-89.0444,"dy":0.0017,"dx":0.0017,"nx":28,"ny":28,"refTime":"2024-04-24T03:00:00:Z","depth":"0","parameterNumber":2,"parameterNumberName":"U-component_of_CURRENTS"},"data":[0,0,0,0,0,0,0,0,0,0,0,0,0,0,0,0,0,0,0,0,0,0,0,0,0,0,0,0,0,0,0,0,0,0,0,0,0,0,0,0,0,0,0,0,0,0,0,0,0,0,0,0,0,0,0,0,0,0,0.3036,0.3037,0,0.307,0.307,0.307,0.3045,0.3045,0.3045,0.3045,0.2982,0.298,0.2979,0,0,0,0,0,0,0,0,0,0,0,0,0,0.2902,0.2904,0.3036,0.3037,0.3039,0.307,0.307,0.3069,0.3045,0.3045,0.3045,0.3044,0.2982,0.298,0.2979,0,0,0,0,0,0,0,0,0,0,0,0,0,0.2942,0.2904,0.3036,0.3037,0.3038,0.307,0.307,0.3069,0.3046,0.3045,0.3045,0.3044,0.2983,0.2981,0.2978,0.2974,0,0,0.2972,0.2971,0,0,0,0,0,0,0,0,0.294,0.2946,0.3036,0.3037,0.3038,0.3061,0.3,0.3036,0.3046,0.3033,0.3045,0.3044,0.3005,0.3001,0.2997,0.2971,0.2968,0.2972,0.297,0.297,0.2969,0,0,0,0,0,0,0,0.2937,0.2944,0.3041,0.3037,0.3039,0.302,0.3024,0.3006,0.3013,0.3034,0.3035,0.3053,0.3004,0.3,0.2996,0.2967,0.2972,0.297,0.2969,0.2968,0.301,0.3012,0,0,0,0,0,0,0.2954,0.2942,0.304,0.3043,0.2997,0.3023,0.3028,0.3047,0.3015,0.3013,0.3053,0.3052,0.3003,0.2998,0.2993,0.3035,0.297,0.2968,0.2966,0.3008,0.3011,0.3013,0,0,0,0,0,0,0.2951,0.2962,0.3039,0.2999,0.3009,0.3027,0.3048,0.3048,0.3051,0.3032,0.3026,0.3058,0.3003,0.2996,0.3013,0.303,0.2967,0.2965,0.3005,0.3009,0.3012,0.3086,0,0,0,0,0,0,0.2947,0.2961,0.2976,0.3001,0.3012,0.3067,0.3049,0.3049,0.3067,0.3065,0.3034,0.3027,0.3002,0.3017,0.3011,0.3026,0.2963,0.3002,0.3007,0.3011,0.3081,0.3092,0.3102,0,0,0,0,0,0.2942,0.2958,0.2976,0.2988,0.3034,0.3069,0.3072,0.3077,0.3068,0.3075,0.3075,0.3029,0.3041,0.3018,0.301,0.3025,0.3,0.3005,0.301,0.3076,0.309,0.3101,0,0,0,0,0,0,0.2899,0.2959,0.2979,0.3011,0.3048,0.3069,0.3076,0.3084,0.3089,0.3086,0.3057,0.3052,0.3075,0.3049,0.3024,0.3056,0.3013,0.3017,0.3066,0.3078,0.3088,0.3107,0.2961,0,0,0,0,0,0.2904,0.2933,0.2989,0.3014,0.3034,0.3058,0.3072,0.3085,0.3099,0.3099,0.3083,0.3078,0.3091,0.3085,0.3084,0.3094,0.3125,0.3102,0.3113,0.3122,0.3136,0.3239,0.3261,0.3031,0.3031,0.3031,0,0,0.2894,0.2933,0.2948,0.3008,0.3029,0.3066,0.3062,0.3093,0.3121,0.3091,0.3107,0.3111,0.3106,0.313,0.3136,0.3108,0.3203,0.3128,0.3136,0.3146,0.3247,0.327,0.329,0.3035,0.3034,0.3033,0,0,0.2893,0.2925,0.2955,0.2989,0.3046,0.3069,0.3085,0.312,0.313,0.3161,0.316,0.3193,0.3176,0.3199,0.3204,0.3273,0.3261,0.3258,0.3313,0.3413,0.3433,0.3451,0.3516,0.3539,0.3256,0.3256,0.3256,0,0.2883,0.2935,0.2966,0.3006,0.304,0.3075,0.3117,0.3136,0.3171,0.32,0.3174,0.324,0.3216,0.3294,0.3309,0.3295,0.3341,0.326,0.3428,0.3446,0.3463,0.3525,0.355,0.326,0.326,0.3259,0.3259,0,0.2918,0.2955,0.2971,0.3041,0.3074,0.3116,0.3164,0.3196,0.3213,0.3244,0.3321,0.3331,0.338,0.3371,0.3347,0.346,0.3451,0.3435,0.3395,0.3491,0.355,0.3574,0.3266,0.3265,0.3263,0.3262,0,0,0.2921,0.2987,0.2994,0.3034,0.3103,0.3139,0.3191,0.3269,0.3326,0.3359,0.3447,0.3471,0.3501,0.3513,0.3516,0.3577,0.3713,0.355,0.3553,0.3611,0.3928,0.383,0.3847,0.3734,0.3739,0.3743,0.3919,0,0.2952,0.3019,0.3047,0.3115,0.3164,0.3209,0.326,0.3327,0.3378,0.3464,0.3521,0.3592,0.3551,0.3591,0.3659,0.3707,0.3782,0.3666,0.3828,0.3832,0.3733,0.3873,0.3615,0.3743,0.3942,0.3946,0.3949,0,0.3,0.304,0.3105,0.3181,0.3206,0.3245,0.3357,0.341,0.3528,0.3569,0.3674,0.372,0.3837,0.378,0.3952,0.3885,0.3917,0.3942,0.3949,0.385,0.3781,0.3681,0.3779,0.3646,0.3986,0.3983,0.398,0,0.302,0.3089,0.3142,0.3168,0.3252,0.3292,0.3343,0.3446,0.3517,0.3657,0.3738,0.3875,0.3971,0.4054,0.41,0.4047,0.4277,0.4214,0.4167,0.4159,0.3966,0.3933,0.3949,0.4353,0.4353,0.4352,0.4352,0,0.3066,0.3113,0.3152,0.3187,0.3265,0.3311,0.3415,0.3481,0.3606,0.3715,0.3808,0.3931,0.4047,0.4178,0.419,0.4268,0.4369,0.4216,0.422,0.3982,0.395,0.3842,0.3813,0.4359,0.4357,0.4356,0.4355,0,0.3096,0.3123,0.3192,0.3258,0.328,0.3339,0.3447,0.3523,0.3637,0.3793,0.3849,0.4028,0.4182,0.4281,0.4425,0.4387,0.4316,0.4448,0.4141,0.4104,0.3878,0.3862,0.3809,0.3709,0.4426,0.4425,0.4424,0,0.3129,0.3157,0.3226,0.3261,0.3292,0.3373,0.3428,0.3531,0.3613,0.3842,0.392,0.4123,0.4236,0.4417,0.4376,0.442,0.4306,0.4208,0.4048,0.3867,0.3856,0.3722,0.3633,0.3826,0.3821,0.3816,0.3812,0,0.3174,0.3185,0.3227,0.329,0.3342,0.3413,0.3495,0.3562,0.3699,0.381,0.3971,0.4078,0.4228,0.4146,0.4196,0.4178,0.3961,0.4112,0.4019,0.3481,0.3246,0.3147,0.3698,0.3771,0.3775,0.3778,0.378,0.3782,0.3195,0.3221,0.3252,0.3313,0.337,0.3425,0.3438,0.3526,0.362,0.3706,0.3891,0.3912,0.3895,0.3902,0.3879,0.3629,0.37,0.3451,0.348,0.3387,0.318,0.3629,0.364,0.3644,0.3646,0.3649,0.3651,0,0.3194,0.3209,0.3268,0.3315,0.3334,0.3381,0.3449,0.3411,0.3438,0.352,0.3589,0.3491,0.3377,0.3338,0.3151,0.3002,0.2854,0.2912,0.2653,0.2626,0.3098,0.2954,0.2699,0.2699,0.2699,0.27,0.27,0.27,0.3191,0.3212,0.3231,0.3246,0.3266,0.3215,0.3211,0.3166,0.3165,0.3052,0.2941,0.2957,0.2974,0.2831,0.2615,0.2546,0.2377,0.2212,0.2322,0.2619,0.267,0.2717,0.2573,0.2242,0.2242,0.1639,0.1635,0.1631]},{"header":{"parameterUnit":"m.s-1","parameterCategory":2,"la1":30.2991,"la2":30.254,"lo1":-89.0895,"lo2":-89.0444,"dy":0.0017,"dx":0.0017,"nx":28,"ny":28,"refTime":"2024-04-24T03:00:00:Z","depth":"0","parameterNumber":3,"parameterNumberName":"V-component_of_CURRENTS"},"data":[0,0,0,0,0,0,0,0,0,0,0,0,0,0,0,0,0,0,0,0,0,0,0,0,0,0,0,0,0,0,0,0,0,0,0,0,0,0,0,0,0,0,0,0,0,0,0,0,0,0,0,0,0,0,0,0,0,0,0.0372,0.0372,0,0.0322,0.0321,0.032,0.0272,0.0272,0.0271,0.0271,0.0201,0.0199,0.0198,0,0,0,0,0,0,0,0,0,0,0,0,0,0.0356,0.0356,0.0372,0.0372,0.0371,0.0322,0.0321,0.032,0.0272,0.0272,0.0271,0.0271,0.0202,0.02,0.0198,0,0,0,0,0,0,0,0,0,0,0,0,0,0.0337,0.0357,0.0372,0.0344,0.0341,0.0323,0.0321,0.032,0.0272,0.0272,0.0271,0.0271,0.0202,0.02,0.0198,0.0191,0,0,0.019,0.0189,0,0,0,0,0,0,0,0,0.0338,0.0337,0.0349,0.0346,0.0343,0.0306,0.029,0.0277,0.0272,0.0295,0.0271,0.0271,0.0237,0.0232,0.0218,0.0188,0.0185,0.019,0.0189,0.0188,0.0187,0,0,0,0,0,0,0,0.034,0.0339,0.0349,0.0348,0.0345,0.0311,0.0308,0.0287,0.0266,0.0293,0.029,0.029,0.0235,0.0221,0.0216,0.0184,0.019,0.0188,0.0186,0.0186,0.0154,0.0155,0,0,0,0,0,0,0.0357,0.034,0.035,0.0347,0.0344,0.0312,0.0308,0.0315,0.0266,0.026,0.0291,0.0288,0.0225,0.0219,0.0214,0.0229,0.0188,0.0185,0.0184,0.0153,0.0154,0.0155,0,0,0,0,0,0,0.0357,0.0359,0.0352,0.0345,0.0342,0.0313,0.0321,0.0315,0.0304,0.0266,0.0258,0.0287,0.0225,0.0217,0.0203,0.0225,0.0184,0.0182,0.0153,0.0154,0.0154,0.0243,0,0,0,0,0,0,0.0357,0.0359,0.0369,0.0347,0.0343,0.0351,0.0322,0.0314,0.0306,0.0303,0.026,0.0253,0.0224,0.0207,0.0201,0.0221,0.018,0.0152,0.0153,0.0154,0.0239,0.0246,0.0253,0,0,0,0,0,0.0357,0.0378,0.037,0.0371,0.0359,0.0352,0.0347,0.0322,0.0307,0.0308,0.028,0.0254,0.0209,0.0206,0.0198,0.0218,0.0151,0.0153,0.0154,0.0236,0.0245,0.0253,0,0,0,0,0,0,0.0371,0.0374,0.0366,0.0385,0.0374,0.0346,0.0346,0.0329,0.0306,0.0303,0.0261,0.0253,0.0246,0.0219,0.0216,0.0211,0.0176,0.0176,0.0241,0.0249,0.0256,0.0299,0.0178,0,0,0,0,0,0.0382,0.0401,0.0389,0.0404,0.0401,0.0374,0.0368,0.0353,0.0332,0.0321,0.0293,0.0264,0.0245,0.0238,0.0211,0.0213,0.0205,0.0219,0.0226,0.0233,0.0261,0.0269,0.028,0.0159,0.0159,0.0159,0,0,0.039,0.0397,0.0405,0.0409,0.0395,0.0405,0.0368,0.0368,0.038,0.0318,0.0322,0.0284,0.0248,0.0247,0.0242,0.023,0.026,0.0234,0.024,0.0266,0.0272,0.0284,0.0295,0.016,0.016,0.016,0,0,0.0424,0.0423,0.045,0.0447,0.0443,0.043,0.0435,0.0413,0.0407,0.0407,0.0365,0.035,0.0315,0.0302,0.029,0.0321,0.0291,0.0301,0.0379,0.0386,0.0397,0.0407,0.0404,0.0413,0.0312,0.0312,0.0312,0,0.0432,0.0469,0.0453,0.0476,0.0486,0.0448,0.0476,0.0465,0.0442,0.0453,0.0421,0.0396,0.0351,0.0373,0.0374,0.0341,0.0334,0.0352,0.0398,0.0408,0.0416,0.0411,0.0419,0.0316,0.0316,0.0315,0.0315,0,0.0485,0.0511,0.0525,0.0548,0.0552,0.0569,0.0559,0.0564,0.055,0.0542,0.0556,0.0505,0.05,0.0472,0.0429,0.0466,0.0438,0.0402,0.0384,0.0434,0.0424,0.0432,0.0322,0.0321,0.032,0.0318,0,0,0.0521,0.0557,0.0564,0.0595,0.0596,0.0614,0.0638,0.0661,0.0701,0.067,0.073,0.0673,0.0651,0.0636,0.0586,0.0582,0.0609,0.0522,0.052,0.0533,0.0623,0.0566,0.0568,0.0581,0.0583,0.0585,0.059,0,0.0569,0.0639,0.064,0.0704,0.074,0.0724,0.0761,0.0775,0.0777,0.082,0.079,0.0811,0.0714,0.0722,0.0705,0.0641,0.0634,0.0611,0.0562,0.0561,0.0516,0.0577,0.0558,0.0559,0.0597,0.0598,0.0599,0,0.0631,0.0674,0.0749,0.0812,0.0827,0.0858,0.0925,0.0952,0.0987,0.0993,0.1008,0.098,0.0984,0.0893,0.0835,0.0825,0.0737,0.0676,0.0674,0.0604,0.0519,0.0516,0.0571,0.0446,0.061,0.0609,0.0608,0,0.0694,0.0756,0.0829,0.0846,0.0901,0.0943,0.0974,0.101,0.1061,0.1115,0.1168,0.1148,0.1172,0.1074,0.0934,0.0892,0.0869,0.0794,0.0664,0.0658,0.0626,0.0615,0.0571,0.076,0.076,0.076,0.076,0,0.0761,0.0819,0.0869,0.0912,0.1009,0.1021,0.1126,0.1149,0.1217,0.1312,0.1271,0.1355,0.1219,0.1181,0.1019,0.0881,0.0936,0.0705,0.0669,0.0652,0.0643,0.0518,0.0444,0.076,0.076,0.076,0.076,0,0.0821,0.0851,0.0942,0.1016,0.1045,0.1118,0.1215,0.1288,0.1343,0.1475,0.1508,0.1531,0.1486,0.1328,0.1186,0.1008,0.0783,0.079,0.0775,0.0736,0.0468,0.0401,0.0322,0.0272,0.0656,0.0655,0.0654,0,0.0862,0.0915,0.1017,0.1073,0.1111,0.1211,0.1282,0.1347,0.1431,0.1591,0.1672,0.1688,0.1721,0.1496,0.1192,0.0929,0.078,0.0713,0.0617,0.0481,0.0379,0.0323,0.0283,0.0606,0.0605,0.0604,0.0603,0,0.093,0.0965,0.1032,0.1145,0.1231,0.134,0.145,0.154,0.1649,0.178,0.1945,0.1996,0.1798,0.1539,0.1163,0.0965,0.0621,0.068,0.0558,0.0365,0.0287,0.0212,0.0565,0.0594,0.0594,0.0595,0.0596,0.0596,0.0972,0.1024,0.1104,0.1211,0.1319,0.1457,0.1565,0.17,0.1875,0.2077,0.2117,0.2199,0.1826,0.1324,0.1058,0.0538,0.0546,0.0354,0.0293,0.0257,0.0183,0.0509,0.0475,0.0475,0.0475,0.0475,0.0476,0,0.1002,0.1054,0.1158,0.1294,0.142,0.1472,0.1665,0.1791,0.2015,0.2176,0.2314,0.2133,0.169,0.1221,0.052,0.0196,0.0103,0.004,-0.0031,-0.0047,0.0265,0.0235,0.0125,0.0126,0.0126,0.0126,0.0126,0.0126,0.1014,0.1091,0.114,0.1337,0.1451,0.1632,0.1752,0.1954,0.2103,0.2275,0.2281,0.2263,0.188,0.0769,0.0037,-0.0115,-0.0286,-0.0351,-0.0416,-0.0208,-0.0183,-0.0159,-0.0203,-0.0403,-0.0404,-0.0697,-0.07,-0.0702]}],[{"header":{"parameterUnit":"m.s-1","parameterCategory":2,"la1":30.2991,"la2":30.254,"lo1":-89.0895,"lo2":-89.0444,"dy":0.0017,"dx":0.0017,"nx":28,"ny":28,"refTime":"2024-04-24T03:00:00:Z","depth":"2","parameterNumber":2,"parameterNumberName":"U-component_of_CURRENTS"},"data":[0,0,0,0,0,0,0,0,0,0,0,0,0,0,0,0,0,0,0,0,0,0,0,0,0,0,0,0,0,0,0,0,0,0,0,0,0,0,0,0,0,0,0,0,0,0,0,0,0,0,0,0,0,0,0,0,0,0,0.2555,0.2555,0,0.2559,0.2559,0.2559,0.2555,0.2555,0.2555,0.2555,0.2555,0.2555,0.2555,0,0,0,0,0,0,0,0,0,0,0,0,0,0.2523,0.2524,0.2555,0.2555,0.2555,0.2559,0.2559,0.2559,0.2555,0.2555,0.2555,0.2555,0.2555,0.2555,0.2555,0,0,0,0,0,0,0,0,0,0,0,0,0,0.2532,0.2524,0.2555,0.2555,0.2555,0.2559,0.2559,0.2559,0.2555,0.2555,0.2555,0.2555,0.2555,0.2555,0.2555,0.2556,0,0,0.2555,0.2556,0,0,0,0,0,0,0,0,0.2531,0.2533,0.2555,0.2555,0.2555,0.2558,0.2548,0.2558,0.2555,0.2553,0.2555,0.2555,0.2557,0.2557,0.2555,0.2556,0.2556,0.2555,0.2556,0.2556,0.2556,0,0,0,0,0,0,0,0.2531,0.2532,0.2555,0.2555,0.2555,0.2548,0.2549,0.255,0.2554,0.2553,0.2553,0.2556,0.2557,0.2555,0.2555,0.2556,0.2555,0.2556,0.2556,0.2556,0.2622,0.2624,0,0,0,0,0,0,0.2535,0.2532,0.2555,0.2555,0.2545,0.2549,0.255,0.2556,0.2554,0.2554,0.2556,0.2556,0.2555,0.2555,0.2555,0.2606,0.2556,0.2556,0.2556,0.262,0.2622,0.2624,0,0,0,0,0,0,0.2534,0.2537,0.2555,0.2545,0.2547,0.2549,0.2556,0.2556,0.2569,0.2557,0.2556,0.2572,0.2555,0.2555,0.2577,0.2604,0.2556,0.2556,0.2618,0.2621,0.2623,0.2676,0,0,0,0,0,0,0.2533,0.2536,0.2542,0.2545,0.2548,0.2566,0.2556,0.2556,0.2571,0.2571,0.2569,0.2568,0.2555,0.2578,0.2577,0.2604,0.2556,0.2616,0.2619,0.2623,0.2672,0.268,0.2687,0,0,0,0,0,0.2532,0.2541,0.2542,0.2545,0.2555,0.2567,0.2567,0.2567,0.2572,0.2579,0.2587,0.2569,0.2598,0.2579,0.2578,0.2605,0.2615,0.2619,0.2622,0.2669,0.2679,0.2687,0,0,0,0,0,0,0.2528,0.2542,0.2543,0.2555,0.2564,0.2567,0.2576,0.2579,0.2591,0.2594,0.2587,0.2587,0.2622,0.2608,0.2587,0.2637,0.2606,0.261,0.2641,0.265,0.2658,0.2682,0.2556,0,0,0,0,0,0.2531,0.2543,0.2552,0.2563,0.2572,0.2578,0.2584,0.2585,0.2595,0.26,0.2608,0.2617,0.2635,0.2638,0.265,0.2668,0.2697,0.2688,0.2696,0.2702,0.2723,0.2796,0.2812,0.2637,0.2637,0.2637,0,0,0.2529,0.2542,0.2546,0.2564,0.2573,0.2589,0.2582,0.2596,0.2616,0.2599,0.2637,0.2647,0.265,0.2679,0.2692,0.2669,0.2768,0.2707,0.2712,0.273,0.2802,0.2819,0.2834,0.264,0.2639,0.2639,0,0,0.2538,0.255,0.2564,0.2574,0.2592,0.2602,0.2612,0.2629,0.2644,0.267,0.2679,0.2709,0.2721,0.2738,0.2744,0.28,0.2813,0.2805,0.285,0.2921,0.2936,0.295,0.301,0.3029,0.2798,0.2798,0.2798,0,0.2538,0.2558,0.2569,0.2586,0.2601,0.2614,0.2634,0.2652,0.2675,0.27,0.2688,0.2762,0.275,0.2814,0.2829,0.2817,0.2863,0.2811,0.2931,0.2945,0.2959,0.3017,0.3037,0.2801,0.2801,0.2801,0.28,0,0.2552,0.2572,0.2585,0.2615,0.2632,0.2651,0.2678,0.2712,0.2733,0.2748,0.2821,0.2832,0.2876,0.2878,0.2863,0.2959,0.2964,0.294,0.2908,0.298,0.3037,0.3057,0.2806,0.2804,0.2804,0.2803,0,0,0.2549,0.2587,0.2592,0.2613,0.265,0.2667,0.2719,0.2769,0.282,0.2847,0.2915,0.2952,0.2973,0.2985,0.2993,0.3045,0.3158,0.3034,0.3037,0.3094,0.3329,0.3194,0.3203,0.3165,0.3169,0.3172,0.3332,0,0.2562,0.2594,0.2615,0.2658,0.2682,0.2719,0.277,0.2814,0.2862,0.2928,0.2964,0.3028,0.301,0.3048,0.3099,0.316,0.3214,0.3117,0.3252,0.3256,0.3127,0.3222,0.2941,0.3048,0.3351,0.3354,0.3357,0,0.2575,0.2597,0.2636,0.2694,0.271,0.2743,0.2842,0.2891,0.298,0.3018,0.3095,0.3123,0.3225,0.318,0.3344,0.3293,0.3318,0.3349,0.3355,0.3228,0.3158,0.3026,0.3073,0.339,0.3387,0.3385,0.3383,0,0.2572,0.2618,0.2654,0.2668,0.2733,0.2776,0.2828,0.292,0.2978,0.3098,0.3153,0.3263,0.3342,0.3415,0.3466,0.343,0.3625,0.3573,0.348,0.3471,0.3255,0.3219,0.3675,0.3675,0.3675,0.3674,0.3674,0,0.2579,0.2608,0.2657,0.2674,0.2734,0.2786,0.2877,0.2948,0.3051,0.3122,0.3211,0.3295,0.341,0.3508,0.353,0.3581,0.3685,0.3521,0.3513,0.3263,0.3228,0.3533,0.3514,0.368,0.3679,0.3678,0.3677,0,0.2567,0.26,0.2639,0.2704,0.2734,0.2779,0.2884,0.2938,0.307,0.3174,0.3218,0.3368,0.3508,0.359,0.372,0.3665,0.3715,0.3689,0.3381,0.3331,0.3499,0.3482,0.3627,0.3624,0.3621,0.3619,0.3617,0,0.2558,0.2585,0.2647,0.2668,0.2699,0.2775,0.2816,0.2933,0.2995,0.3204,0.324,0.3415,0.3482,0.3633,0.3593,0.3623,0.3695,0.3351,0.3203,0.3522,0.3501,0.3487,0.3474,0.2955,0.2947,0.2942,0.2937,0,0.2544,0.2573,0.2592,0.2632,0.2669,0.2719,0.2798,0.2826,0.2973,0.3085,0.3216,0.3291,0.3413,0.3307,0.3332,0.3299,0.3321,0.3228,0.3689,0.2983,0.2893,0.2869,0.2878,0.2885,0.289,0.2894,0.2896,0.2899,0.2525,0.2527,0.2552,0.2589,0.2595,0.2608,0.2652,0.271,0.2787,0.2873,0.3032,0.3057,0.3076,0.2962,0.2876,0.2813,0.3035,0.2885,0.2902,0.2925,0.2792,0.2699,0.2631,0.2634,0.2637,0.264,0.2643,0,0.2483,0.2507,0.2512,0.2534,0.2486,0.2559,0.2593,0.2569,0.2589,0.2658,0.273,0.25,0.2429,0.2474,0.2286,0.2258,0.2228,0.217,0.2109,0.2164,0.2212,0.2039,0.168,0.1677,0.1674,0.1671,0,0,0.2463,0.2434,0.2426,0.238,0.242,0.2349,0.2347,0.2317,0.2305,0.2208,0.2202,0.2325,0.241,0.2012,0.1948,0.1789,0.1964,0.1718,0.2497,0.2484,0.2527,0.2639,0.2437,0,0,0,0,0]},{"header":{"parameterUnit":"m.s-1","parameterCategory":2,"la1":30.2991,"la2":30.254,"lo1":-89.0895,"lo2":-89.0444,"dy":0.0017,"dx":0.0017,"nx":28,"ny":28,"refTime":"2024-04-24T03:00:00:Z","depth":"2","parameterNumber":3,"parameterNumberName":"V-component_of_CURRENTS"},"data":[0,0,0,0,0,0,0,0,0,0,0,0,0,0,0,0,0,0,0,0,0,0,0,0,0,0,0,0,0,0,0,0,0,0,0,0,0,0,0,0,0,0,0,0,0,0,0,0,0,0,0,0,0,0,0,0,0,0,0.0176,0.0175,0,0.0121,0.0121,0.012,0.0086,0.0086,0.0086,0.0086,0.0035,0.0034,0.0033,0,0,0,0,0,0,0,0,0,0,0,0,0,0.0194,0.0194,0.0176,0.0175,0.0174,0.0121,0.0121,0.012,0.0086,0.0086,0.0086,0.0086,0.0036,0.0034,0.0033,0,0,0,0,0,0,0,0,0,0,0,0,0,0.0167,0.0194,0.0176,0.0152,0.0149,0.0122,0.0121,0.012,0.0086,0.0086,0.0086,0.0086,0.0036,0.0034,0.0033,0.0026,0,0,0.0027,0.0026,0,0,0,0,0,0,0,0,0.0169,0.0167,0.0156,0.0153,0.015,0.0111,0.0109,0.0088,0.0086,0.011,0.0086,0.0086,0.0061,0.0057,0.0047,0.0023,0.0021,0.0027,0.0026,0.0025,0.0024,0,0,0,0,0,0,0,0.0171,0.0169,0.0154,0.0155,0.0152,0.0124,0.0121,0.0104,0.0087,0.0108,0.0105,0.01,0.006,0.0049,0.0046,0.002,0.0027,0.0025,0.0024,0.0023,-0.001,-0.001,0,0,0,0,0,0,0.0182,0.0171,0.0155,0.0152,0.016,0.0124,0.012,0.0123,0.0087,0.0081,0.01,0.0099,0.0052,0.0048,0.0044,0.005,0.0025,0.0023,0.0022,-0.0011,-0.001,-0.001,0,0,0,0,0,0,0.0183,0.0181,0.0158,0.016,0.0155,0.0125,0.0128,0.0122,0.0116,0.0081,0.0076,0.01,0.0052,0.0046,0.0031,0.0047,0.0022,0.0021,-0.0011,-0.0011,-0.001,0.0052,0,0,0,0,0,0,0.0184,0.0182,0.0189,0.0161,0.0155,0.0151,0.0128,0.0121,0.0113,0.011,0.0079,0.0074,0.0051,0.0034,0.0029,0.0044,0.0019,-0.0011,-0.0011,-0.001,0.005,0.0054,0.0058,0,0,0,0,0,0.0185,0.0198,0.019,0.0188,0.0166,0.0151,0.0146,0.0122,0.0113,0.0115,0.009,0.0075,0.0033,0.0033,0.0027,0.0042,-0.0011,-0.0011,-0.001,0.0048,0.0054,0.0058,0,0,0,0,0,0,0.0206,0.0195,0.0185,0.0194,0.0177,0.0146,0.0146,0.0129,0.0111,0.0109,0.0077,0.007,0.0062,0.0041,0.0042,0.0032,0.0009,0.0008,0.0055,0.006,0.0065,0.0091,0.0018,0,0,0,0,0,0.0215,0.0227,0.0203,0.0211,0.0205,0.0177,0.0168,0.0153,0.0131,0.0123,0.0101,0.0077,0.0059,0.0051,0.003,0.0027,0.0012,0.0031,0.0036,0.004,0.0056,0.0041,0.0047,-0.0009,-0.0009,-0.0009,0,0,0.0224,0.0221,0.0226,0.0217,0.0202,0.0203,0.0172,0.0165,0.017,0.0121,0.0123,0.0092,0.006,0.0054,0.0049,0.004,0.0046,0.004,0.0044,0.0059,0.0042,0.0048,0.0053,-0.0008,-0.0008,-0.0009,0,0,0.025,0.0247,0.0263,0.0255,0.0241,0.0226,0.0228,0.0202,0.0195,0.0187,0.0154,0.0134,0.0108,0.0088,0.0075,0.0091,0.0068,0.0083,0.0131,0.0116,0.0121,0.0125,0.011,0.0112,0.0088,0.0088,0.0088,0,0.0259,0.028,0.0264,0.0274,0.0276,0.0242,0.0256,0.0245,0.0218,0.0217,0.0198,0.0162,0.0127,0.0126,0.0126,0.0103,0.0092,0.0115,0.0123,0.0127,0.013,0.0114,0.0116,0.0091,0.0091,0.009,0.009,0,0.0294,0.0309,0.0319,0.0327,0.0325,0.0332,0.0315,0.0316,0.0302,0.0283,0.0278,0.0233,0.0213,0.0196,0.0164,0.0172,0.0156,0.013,0.0115,0.014,0.0121,0.0122,0.0095,0.0094,0.0093,0.0093,0,0,0.0319,0.034,0.0345,0.0362,0.0356,0.0362,0.0376,0.0377,0.0397,0.0363,0.0379,0.0336,0.0309,0.0292,0.0253,0.0237,0.0235,0.02,0.0197,0.0195,0.0208,0.0157,0.0153,0.0214,0.0215,0.0215,0.0185,0,0.0351,0.0393,0.0393,0.0432,0.0451,0.0437,0.046,0.0455,0.0446,0.0452,0.0405,0.0405,0.0348,0.0347,0.0319,0.0266,0.0241,0.0246,0.0176,0.0175,0.0134,0.0153,0.0185,0.0158,0.0186,0.0186,0.0186,0,0.0387,0.0413,0.0462,0.0499,0.0507,0.0529,0.0566,0.0583,0.0575,0.057,0.0553,0.0511,0.0489,0.043,0.0366,0.0375,0.0297,0.0246,0.0243,0.0179,0.0126,0.0137,0.0158,0.0187,0.0187,0.0186,0.0186,0,0.0424,0.0463,0.0512,0.0522,0.0556,0.0585,0.0607,0.0619,0.0652,0.0653,0.0676,0.0623,0.0622,0.053,0.0415,0.0397,0.0334,0.0291,0.0169,0.0164,0.017,0.0164,0.0229,0.0229,0.0229,0.0229,0.0229,0,0.0462,0.0498,0.0538,0.0565,0.0634,0.0639,0.0713,0.0728,0.0758,0.0817,0.0749,0.0787,0.0649,0.0585,0.0458,0.0329,0.0366,0.0188,0.0157,0.0189,0.0187,0.0192,0.0188,0.0228,0.0228,0.0228,0.0229,0,0.0492,0.0517,0.0575,0.0629,0.0657,0.0707,0.0789,0.0838,0.0872,0.0949,0.0959,0.092,0.0855,0.0695,0.055,0.0403,0.027,0.0201,0.0246,0.0219,0.0096,0.0096,0.0075,0.0073,0.0071,0.007,0.0069,0,0.0509,0.0547,0.0628,0.0676,0.0707,0.0785,0.0846,0.0893,0.0961,0.1045,0.1092,0.1043,0.1023,0.0786,0.0535,0.0304,0.0262,0.0146,0.0099,0.0111,0.0083,0.0085,0.0087,0.0134,0.0133,0.0133,0.0132,0,0.0545,0.0579,0.0626,0.073,0.0804,0.0893,0.099,0.1062,0.1143,0.1231,0.1326,0.1314,0.1083,0.0858,0.0511,0.0347,0.0185,0.0126,0.0151,0.0156,0.016,0.0134,0.0135,0.0128,0.0129,0.0129,0.0129,0.0129,0.0573,0.0611,0.0688,0.0785,0.0874,0.1,0.1099,0.1212,0.1354,0.148,0.1464,0.1453,0.1168,0.0733,0.0454,0.0153,0.016,0.0036,0.0041,0.0045,0.0045,0.0046,-0.0007,-0.0008,-0.0008,-0.0008,-0.0009,0,0.0608,0.066,0.0743,0.0865,0.0969,0.1021,0.1195,0.1297,0.1487,0.1561,0.1627,0.135,0.1095,0.0778,0.0339,0.0058,0.0053,-0.0038,0.0026,0.0032,0.0037,0.0038,-0.0017,-0.0018,-0.0019,-0.002,0,0,0.0629,0.0705,0.0744,0.092,0.102,0.1177,0.1288,0.1447,0.1544,0.162,0.1607,0.1529,0.117,0.0836,0.048,0.0241,0.0195,0.0184,0.0221,0.0346,0.0354,0.011,0.0122,0,0,0,0,0]}],[{"header":{"parameterUnit":"m.s-1","parameterCategory":2,"la1":30.2991,"la2":30.254,"lo1":-89.0895,"lo2":-89.0444,"dy":0.0017,"dx":0.0017,"nx":28,"ny":28,"refTime":"2024-04-24T03:00:00:Z","depth":"4","parameterNumber":2,"parameterNumberName":"U-component_of_CURRENTS"},"data":[0,0,0,0,0,0,0,0,0,0,0,0,0,0,0,0,0,0,0,0,0,0,0,0,0,0,0,0,0,0,0,0,0,0,0,0,0,0,0,0,0,0,0,0,0,0,0,0,0,0,0,0,0,0,0,0,0,0,0.1513,0.1514,0,0.1557,0.1558,0.1558,0.1611,0.1612,0.1613,0.1613,0.17,0.1702,0.1703,0,0,0,0,0,0,0,0,0,0,0,0,0,0.1519,0.1518,0.1513,0.1514,0.1514,0.1557,0.1558,0.1559,0.1611,0.1612,0.1613,0.1614,0.17,0.1701,0.1703,0,0,0,0,0,0,0,0,0,0,0,0,0,0.1535,0.1518,0.1513,0.1545,0.1548,0.1557,0.1558,0.1559,0.1611,0.1612,0.1613,0.1614,0.1699,0.1701,0.1704,0.1697,0,0,0.1711,0.1712,0,0,0,0,0,0,0,0,0.1534,0.1535,0.154,0.1543,0.1546,0.1579,0.1592,0.1607,0.1611,0.1588,0.1613,0.1615,0.1662,0.1668,0.1674,0.1701,0.1705,0.1711,0.1713,0.1714,0.1715,0,0,0,0,0,0,0,0.1533,0.1534,0.1532,0.154,0.1544,0.1572,0.1575,0.1595,0.162,0.159,0.1594,0.1597,0.1665,0.1672,0.1677,0.1706,0.1711,0.1713,0.1715,0.1716,0.1829,0.1831,0,0,0,0,0,0,0.1522,0.1532,0.153,0.1533,0.1542,0.1571,0.1575,0.1568,0.1619,0.1627,0.1596,0.1599,0.1667,0.1674,0.168,0.1759,0.1714,0.1716,0.1718,0.1828,0.183,0.1831,0,0,0,0,0,0,0.1522,0.1521,0.1528,0.1534,0.1537,0.1569,0.1562,0.1568,0.161,0.1623,0.1632,0.1635,0.1668,0.1677,0.1719,0.176,0.1717,0.1719,0.1826,0.1828,0.183,0.1863,0,0,0,0,0,0,0.1522,0.152,0.1538,0.1532,0.1536,0.1554,0.1561,0.1568,0.1608,0.1614,0.1658,0.1666,0.167,0.1715,0.1721,0.1762,0.1721,0.1824,0.1827,0.183,0.186,0.1866,0.1872,0,0,0,0,0,0.1521,0.1531,0.1538,0.1539,0.1549,0.1555,0.156,0.1587,0.1609,0.163,0.1657,0.1666,0.1739,0.1718,0.1725,0.1768,0.1823,0.1826,0.1829,0.1857,0.1865,0.1871,0,0,0,0,0,0,0.1547,0.1537,0.1544,0.1553,0.1564,0.1564,0.1592,0.1606,0.1644,0.1664,0.1676,0.1685,0.1742,0.1748,0.1724,0.181,0.1787,0.1792,0.1806,0.1813,0.1818,0.1825,0.1723,0,0,0,0,0,0.1556,0.1563,0.1557,0.157,0.1577,0.1592,0.1609,0.1624,0.1643,0.1663,0.1691,0.1725,0.1756,0.1778,0.1805,0.1844,0.1858,0.188,0.1885,0.189,0.1901,0.1953,0.1965,0.1843,0.1843,0.1843,0,0,0.1571,0.1568,0.1574,0.1578,0.1592,0.1603,0.1606,0.1637,0.166,0.1666,0.1724,0.1749,0.1771,0.1818,0.1845,0.1831,0.1931,0.1894,0.1898,0.1907,0.1958,0.197,0.198,0.1845,0.1845,0.1844,0,0,0.1588,0.16,0.1608,0.1618,0.1639,0.1642,0.1657,0.1675,0.1705,0.1746,0.1763,0.1808,0.1855,0.1875,0.189,0.1945,0.1961,0.1966,0.1999,0.205,0.206,0.2069,0.2093,0.2105,0.1966,0.1966,0.1966,0,0.1613,0.1611,0.1616,0.1627,0.1644,0.1661,0.1679,0.1702,0.1738,0.1767,0.1776,0.1864,0.1882,0.1935,0.1955,0.1959,0.1984,0.1967,0.2057,0.2066,0.2075,0.2098,0.211,0.1968,0.1968,0.1968,0.1968,0,0.1621,0.1638,0.1647,0.166,0.1683,0.1702,0.1723,0.1763,0.1802,0.1825,0.1902,0.1926,0.1981,0.1995,0.1992,0.2069,0.2064,0.2058,0.2036,0.2089,0.211,0.2122,0.1971,0.1971,0.197,0.1969,0,0,0.1619,0.1647,0.1654,0.1669,0.1704,0.1715,0.1768,0.1809,0.1855,0.1906,0.1966,0.2021,0.2053,0.2073,0.2085,0.2121,0.2197,0.2123,0.2124,0.2141,0.2304,0.2139,0.2136,0.2215,0.2217,0.2219,0.2289,0,0.1626,0.1649,0.1667,0.1702,0.1713,0.1755,0.1795,0.1846,0.1901,0.1964,0.2012,0.2078,0.2077,0.2119,0.2158,0.2196,0.2233,0.2178,0.2256,0.2257,0.21,0.2146,0.2227,0.2298,0.2301,0.2303,0.2304,0,0.1617,0.1636,0.1671,0.1715,0.1727,0.1762,0.1842,0.1882,0.1971,0.2021,0.2101,0.2144,0.2223,0.2207,0.2307,0.228,0.2303,0.2317,0.232,0.2164,0.2114,0.2237,0.2325,0.2324,0.2322,0.2321,0.2319,0,0.1587,0.1633,0.1665,0.1681,0.1736,0.1781,0.1825,0.1912,0.1957,0.2075,0.2129,0.2224,0.228,0.2342,0.2383,0.2368,0.247,0.2449,0.2318,0.2306,0.2419,0.2409,0.2518,0.2518,0.2518,0.2518,0.2518,0,0.1556,0.1583,0.1662,0.1672,0.1717,0.1778,0.1847,0.1905,0.2007,0.2055,0.2165,0.2217,0.2322,0.2386,0.2416,0.2398,0.2507,0.2331,0.2317,0.2429,0.242,0.2427,0.2415,0.252,0.252,0.2519,0.2519,0,0.1499,0.1551,0.1582,0.1664,0.1696,0.1732,0.1837,0.1875,0.1998,0.207,0.2115,0.2239,0.2324,0.2398,0.2487,0.2415,0.2432,0.2397,0.2511,0.2502,0.2226,0.2216,0.2258,0.2253,0.2249,0.2245,0.2242,0,0.1461,0.1477,0.1564,0.1576,0.1615,0.1689,0.1721,0.185,0.1893,0.2059,0.2071,0.2205,0.2271,0.2267,0.2358,0.2396,0.2367,0.2342,0.2279,0.2219,0.2203,0.2199,0.2195,0.2235,0.2234,0.2233,0.2232,0,0.1384,0.1435,0.1457,0.1489,0.1528,0.1558,0.1632,0.1658,0.1797,0.1935,0.1987,0.2036,0.211,0.2171,0.2207,0.2232,0.234,0.2296,0.2304,0.2245,0.2191,0.2179,0.218,0.2217,0.2219,0.222,0.2221,0,0.1328,0.1317,0.1356,0.137,0.1407,0.1398,0.1462,0.1516,0.1585,0.1783,0.1799,0.195,0.2085,0.2087,0.2132,0.2133,0.21,0.2011,0.2034,0.2051,0.1949,0.1848,0.1762,0,0,0,0,0,0.1257,0.1224,0.1225,0.1213,0.1247,0.1283,0.1373,0.1448,0.1607,0.1593,0.1696,0.1767,0.1829,0.1914,0.1876,0.2032,0.2099,0.1975,0.2005,0.2133,0.215,0.2047,0,0,0,0,0,0,0.12,0.1197,0.1179,0.1088,0.1068,0.1088,0.1152,0.1262,0.1276,0.1456,0.1512,0.1643,0.1746,0.184,0.184,0.1862,0.1837,0.2079,0.2074,0.2123,0.2139,0.2153,0.2053,0,0,0,0,0]},{"header":{"parameterUnit":"m.s-1","parameterCategory":2,"la1":30.2991,"la2":30.254,"lo1":-89.0895,"lo2":-89.0444,"dy":0.0017,"dx":0.0017,"nx":28,"ny":28,"refTime":"2024-04-24T03:00:00:Z","depth":"4","parameterNumber":3,"parameterNumberName":"V-component_of_CURRENTS"},"data":[0,0,0,0,0,0,0,0,0,0,0,0,0,0,0,0,0,0,0,0,0,0,0,0,0,0,0,0,0,0,0,0,0,0,0,0,0,0,0,0,0,0,0,0,0,0,0,0,0,0,0,0,0,0,0,0,0,0,0.0108,0.0107,0,0.0074,0.0074,0.0073,0.0054,0.0054,0.0054,0.0054,0.0018,0.0017,0.0016,0,0,0,0,0,0,0,0,0,0,0,0,0,0.0119,0.0119,0.0108,0.0107,0.0107,0.0074,0.0074,0.0073,0.0054,0.0054,0.0054,0.0054,0.0018,0.0017,0.0016,0,0,0,0,0,0,0,0,0,0,0,0,0,0.0103,0.0119,0.0108,0.0093,0.0092,0.0074,0.0074,0.0073,0.0054,0.0054,0.0054,0.0054,0.0019,0.0017,0.0016,0.0009,0,0,0.0012,0.0011,0,0,0,0,0,0,0,0,0.0104,0.0102,0.0096,0.0094,0.0093,0.0068,0.0065,0.0052,0.0054,0.0068,0.0054,0.0054,0.0035,0.0032,0.0026,0.0008,0.0006,0.0012,0.0011,0.001,0.001,0,0,0,0,0,0,0,0.0105,0.0103,0.0094,0.0096,0.0094,0.0077,0.0075,0.0062,0.0052,0.0067,0.0065,0.0062,0.0034,0.0027,0.0025,0.0006,0.0012,0.0011,0.001,0.0009,-0.0021,-0.0021,0,0,0,0,0,0,0.0112,0.0105,0.0095,0.0093,0.0098,0.0077,0.0074,0.0076,0.0052,0.0049,0.0062,0.0061,0.003,0.0026,0.0024,0.0023,0.001,0.0009,0.0008,-0.0021,-0.0021,-0.0021,0,0,0,0,0,0,0.0112,0.0111,0.0097,0.0098,0.0095,0.0077,0.0079,0.0075,0.0072,0.0049,0.0045,0.0062,0.0029,0.0025,0.0015,0.0021,0.0009,0.0007,-0.0021,-0.0021,-0.0021,0.0017,0,0,0,0,0,0,0.0113,0.0112,0.0117,0.0099,0.0095,0.0091,0.0079,0.0075,0.007,0.0068,0.0048,0.0044,0.0029,0.0017,0.0013,0.0019,0.0006,-0.0021,-0.0021,-0.0021,0.0015,0.0018,0.002,0,0,0,0,0,0.0113,0.0121,0.0118,0.0117,0.0103,0.0091,0.0088,0.0074,0.007,0.007,0.0055,0.0045,0.0014,0.0016,0.0012,0.0017,-0.0021,-0.0021,-0.0021,0.0014,0.0017,0.002,0,0,0,0,0,0,0.0126,0.012,0.0115,0.012,0.0109,0.0088,0.0088,0.0078,0.0066,0.0067,0.0045,0.0041,0.0033,0.0018,0.0021,0.0007,-0.0006,-0.0006,0.0023,0.0026,0.0028,0.0037,0.0005,0,0,0,0,0,0.0133,0.0141,0.0125,0.013,0.0126,0.0109,0.0103,0.0094,0.008,0.0075,0.0059,0.0043,0.0029,0.0023,0.0008,0.0002,-0.0019,0.0002,0.0004,0.0006,0.001,-0.0017,-0.0017,-0.0022,-0.0022,-0.0022,0,0,0.0139,0.0137,0.0141,0.0134,0.0125,0.0125,0.0105,0.0102,0.0103,0.0073,0.0072,0.0052,0.0029,0.0022,0.0017,0.0011,-0.0005,0.0006,0.0008,0.0011,-0.0017,-0.0016,-0.0016,-0.0022,-0.0022,-0.0022,0,0,0.0154,0.0154,0.0164,0.0159,0.0151,0.0141,0.0142,0.0124,0.0119,0.0113,0.0092,0.0074,0.0056,0.0038,0.0028,0.0033,0.0009,0.003,0.005,0.0024,0.0024,0.0024,-0.0005,-0.0008,0.0031,0.0031,0.0031,0,0.0161,0.0173,0.0163,0.017,0.0171,0.0151,0.0159,0.0151,0.0132,0.0129,0.0119,0.0085,0.0064,0.0051,0.0052,0.004,0.002,0.0043,0.0028,0.0027,0.0027,-0.0003,-0.0007,0.0033,0.0033,0.0032,0.0032,0,0.0181,0.0191,0.0196,0.0203,0.0201,0.0205,0.0194,0.0192,0.0183,0.017,0.0156,0.0123,0.0103,0.0091,0.0074,0.006,0.0045,0.0035,0.0023,0.003,-0.0002,-0.0007,0.0035,0.0035,0.0034,0.0034,0,0,0.0193,0.0208,0.0211,0.0223,0.0221,0.0223,0.023,0.0226,0.0235,0.0208,0.0208,0.0174,0.0152,0.0138,0.011,0.0083,0.0057,0.0061,0.0058,0.0037,-0.0002,-0.0004,-0.0009,0.0046,0.0045,0.0045,-0.0024,0,0.021,0.0236,0.0238,0.0263,0.0273,0.0266,0.0277,0.0272,0.0262,0.0256,0.0217,0.0207,0.0173,0.0166,0.0132,0.008,0.0048,0.0077,-0.001,-0.0012,-0.001,-0.0013,0.0043,-0.0027,-0.0028,-0.0029,-0.003,0,0.0228,0.0245,0.0275,0.03,0.0306,0.032,0.0337,0.0345,0.033,0.0323,0.0297,0.0264,0.0224,0.0194,0.0106,0.0127,0.0067,0.002,0.0016,-0.0001,-0.0022,-0.0036,-0.0038,-0.0037,-0.0037,-0.0036,-0.0036,0,0.0244,0.0271,0.0301,0.0309,0.0333,0.0351,0.0365,0.0365,0.0387,0.0366,0.0374,0.0311,0.0291,0.0209,0.0109,0.011,0.0004,-0.0007,-0.0069,-0.007,-0.0065,-0.0064,-0.0073,-0.0073,-0.0073,-0.0073,-0.0073,0,0.026,0.0283,0.0316,0.0333,0.038,0.0383,0.043,0.0432,0.0446,0.0478,0.0416,0.0418,0.0294,0.0218,0.0122,0.0014,0.0013,-0.0066,-0.0086,-0.0048,-0.0045,-0.0068,-0.0067,-0.0075,-0.0075,-0.0074,-0.0074,0,0.0268,0.0289,0.0328,0.0369,0.0391,0.0424,0.0489,0.0522,0.0527,0.0565,0.0565,0.0498,0.0406,0.027,0.0128,0.0042,-0.0069,-0.0111,-0.0064,-0.008,-0.013,-0.0126,-0.0178,-0.0179,-0.0179,-0.018,-0.018,0,0.0273,0.0296,0.0362,0.0403,0.0427,0.0485,0.0534,0.0564,0.0608,0.062,0.0643,0.0559,0.0499,0.0298,0.0148,-0.0047,-0.0077,-0.0147,-0.0137,-0.0125,-0.014,-0.0135,-0.0131,-0.0181,-0.0181,-0.0181,-0.0181,0,0.0285,0.0314,0.0353,0.0439,0.0502,0.0575,0.0646,0.0683,0.0722,0.0723,0.0714,0.0604,0.0491,0.0318,0.0155,0.0018,-0.0107,-0.0152,-0.0152,-0.0144,-0.0129,-0.0142,-0.0137,-0.0183,-0.0183,-0.0182,-0.0182,0,0.0304,0.0334,0.04,0.0475,0.056,0.0648,0.0678,0.0735,0.0776,0.0785,0.0778,0.0649,0.0568,0.0352,0.021,0.0064,0.0031,-0.0023,-0.003,-0.003,0.0028,0.0069,0.0061,0,0,0,0,0,0.0322,0.0365,0.0433,0.0522,0.0609,0.0664,0.0753,0.0778,0.081,0.0816,0.0802,0.07,0.0489,0.0395,0.0253,0.0192,-0.0003,0.0019,-0.0072,-0.0193,-0.0191,-0.0148,0,0,0,0,0,0,0.034,0.0403,0.0434,0.0556,0.0621,0.0724,0.0783,0.0803,0.0811,0.0812,0.0707,0.0652,0.045,0.057,0.0246,0.0201,0.0121,-0.0079,-0.0083,-0.0194,-0.0192,-0.019,-0.0145,0,0,0,0,0]}]]